Regional Weather Roundup
Issued by NWS

Home | Current Version | Previous Version | Text Only | Print | Product List | Glossary Off
Versions: 1 2 3 4 5 6 7 8 9 10 11 12 13 14 15 16 17 18 19 20 21 22 23 24 25 26 27 28 29 30 31 32 33 34 35 36 37 38 39 40 41 42 43 44 45 46 47 48 49 50

483
ASUS43 KDTX 250810
RWRMI
MICHIGAN HOURLY REGIONAL WEATHER ROUNDUP
NATIONAL WEATHER SERVICE DETROIT/PONTIAC MI
ISSUED BY NATIONAL WEATHER SERVICE GRAND RAPIDS MI
400 AM EDT SUN JUN 25 2017

NOTE: "FAIR" INDICATES FEW OR NO CLOUDS BELOW 12,000 FEET WITH NO
SIGNIFICANT WEATHER AND/OR OBSTRUCTION TO VISIBILITY.

MIZ047>049-052>055-059>063-066>070-074>076-081>083-250900-
SOUTHEAST LOWER MICHIGAN

CITY           SKY/WX    TMP DP  RH WIND       PRES   REMARKS
ADRIAN         PTCLDY    55  49  80 W5        30.02F
ALMA           MOCLDY    57  50  78 W12       29.96F
ANN ARBOR      CLEAR     46  46 100 SW5       29.99F
BAD AXE        PTCLDY    55  51  89 SW3       29.94F
DETROIT CITY   CLEAR     61  48  62 W5        29.98F
DETROIT        CLEAR     58  49  72 SW7       29.99F
FLINT          PTCLDY    56  48  74 SW7       29.96F
GROSSE ILE     CLEAR     59  49  71 W6        29.98F
HILLSDALE      MOCLDY    55  48  76 SW6       30.01F
HOWELL         CLEAR     55  46  73 SW5       29.98F

CITY           SKY/WX    TMP DP  RH WIND       PRES   REMARKS
JACKSON        MOCLDY    56  49  77 SW6       29.99F
LANSING        CLOUDY    58  49  72 SW13      29.99S
MASON          CLOUDY    56  50  80 W3        29.99S
MONROE         CLEAR     56  49  77 CALM      30.00S
MT. CLEMENS    CLEAR     60  49  65 SW6       29.95F
PONTIAC        CLEAR     58  49  72 CALM      29.97F
PORT HOPE        N/A     56  53  90 SW3       29.91F
PORT HURON     CLOUDY    54  48  82 CALM      29.97F
TRI CITIES     CLOUDY    57  52  83 SW9       29.95F
YPSILANTI      CLEAR     57  50  77 W9        29.99F
$$
MIZ043>046-050>051-056>058-064>065-071>073-077>080-250900-
SOUTHWEST LOWER MICHIGAN

CITY           SKY/WX    TMP DP  RH WIND       PRES   REMARKS
BATTLE CREEK   CLOUDY    57  53  86 SW8       30.01S
BENTON HARBOR  CLOUDY    63  52  67 W13G23    30.01F
BIG RAPIDS     CLOUDY    53  47  80 W5        29.94F
COLDWATER      MOCLDY    57  49  76 SW6       30.01F
HOLLAND        PTCLDY    59  46  62 W10G20    30.00F
GRAND RAPIDS   MOCLDY    58  49  72 W10       29.98F
KALAMAZOO      CLOUDY    58  51  78 SW5       30.01F
MARSHALL       CLOUDY    58  52  79 SW7       29.99F
MOUNT PLEASANT PTCLDY    57  48  72 SW8       29.94S
MUSKEGON       PTCLDY    58  49  72 W12       29.98F
STURGIS        CLOUDY    55  49  81 SW3       30.01F
$$
MIZ016>042-250900-
NORTHERN LOWER MICHIGAN

CITY           SKY/WX    TMP DP  RH WIND       PRES   REMARKS
ALPENA         MOCLDY    55  55 100 SW5       29.90F
BEAVER ISLAND  FOG       48  48 100 CALM      29.90F VSB 1/2
BELLAIRE       RAIN      56  55  94 CALM      29.90F
CADILLAC       RAIN      52  50  95 W12       29.94R
CHARLEVOIX     CLOUDY    56  56 100 CALM      29.93S
GAYLORD        CLOUDY    55  51  86 CALM      29.90F
HOUGHTON LAKE  CLOUDY    56  51  84 SW8       29.93S
MANISTEE       LGT RAIN  55  51  86 NE3       29.93F
OSCODA         CLEAR     54  52  95 SW6       29.90F
PELLSTON       CLOUDY    54  52  93 CALM      29.89F
TRAVERSE CITY  CLOUDY    56  51  84 SW8       29.91S
LUDINGTON      CLOUDY    54  51  90 CALM      29.94F
$$
MIZ007>008-015-250900-
EASTERN UPPER MICHIGAN

CITY           SKY/WX    TMP DP  RH WIND       PRES   REMARKS
KINROSS        LGT RAIN  53  50  89 NW5       29.90S
MACKINAC ISLAN CLOUDY    53  53 100 CALM      29.89S
NEWBERRY       LGT RAIN  51  50  97 CALM      29.90S
S. S. MARIE    CLOUDY    53  50  89 NW8       29.89S
$$
MIZ004>006-011>014-085-250900-
CENTRAL UPPER MICHIGAN

CITY           SKY/WX    TMP DP  RH WIND       PRES   REMARKS
MANISTIQUE     CLOUDY    53  49  89 N5        29.90F
ESCANABA       CLOUDY    53  53 100 NW3       29.91F
MENOMINEE      LGT RAIN  53  52  96 W3        29.94S
SAWYER-GWINN   CLOUDY    51  49  96 CALM      29.92F
$$
MIZ001>003-009>011-084-250900-
WESTERN UPPER MICHIGAN

CITY           SKY/WX    TMP DP  RH WIND       PRES   REMARKS
IRON MOUNTAIN  CLOUDY    53  50  89 N3        29.91S
HOUGHTON       FOG       50  48  93 NW7       29.92F VSB 1/2
COPPER HARBOR    N/A     49  49 100 N3        29.92S
IRONWOOD       LGT RAIN  53  52  96 NW5       29.97S
$$

ABBREVIATIONS USED IN REMARKS
   TC - TEMPERATURE IN CELSIUS
  WCI - WIND CHILL INDEX
   HX - HEAT INDEX
  VSB - VISIBILITY





USA.gov is the U.S. government's official web portal to all federal, state and local government web resources and services.